SCP
0 0 0 0 0 0 0 0 0 0 0 0 0 0 0 0 0 0 0 0 0 0 0 0 0 0 0 0 0 0 0 0 0 0 0 0 0 0 0 0 0 0 0
0 0 0 0 0 0 0 0 0 0 0 0 0 0 0 0 0 0 0 0 0 0 0 0 0 0 0 0 0 0 0 0 0 0 0 0 0 0 0 0 0 0 0
0 0 0 0 0 0 0 0 0 0 0 0 0 0 0 0 0 0 0 0 0 0 0 0 0 0 0 0 0 0 0 0 0 0 0 0 0 0 0 0 0 0 0
0 0 0 0 0 0 0 0 0 0 0 0 0 0 0 0 0 0 0 0 0 0 0 0 0 0 0 0 0 0 0 0 0 0 0 0 0 0 0 0 0 0 0
0 0 0 0 0 0 0 0 0 0 0 0 0 0 0 0 0 0 0 0 0 0 0 0 0 0 0 0 0 0 0 0 0 0 0 0 0 0 0 0 0 0 0
0 0 0 0 0 0 0 0 0 0 0 0 0 0 0 0 0 0 0 0 0 0 0 0 0 0 0 0 0 0 0 0 0 0 0 0 0 0 0 0 0 0 0
0 0 0 0 0 0 0 0 0 0 0 0 0 0 0 0 0 0 0 0 0 0 0 0 0 0 0 0 0 0 0 0 0 0 0 0 0 0 0 0 0 0 0
0 0 1 1 1 0 0 0 0 0 0 0 0 0 0 0 0 0 0 0 0 0 0 0 0 0 0 0 0 0 0 0 0 0 0 0 0 0 0 0 0 0 0
1 1 1 1 1 1 1 1 1 0 0 0 0 0 0 0 0 0 0 0 0 0 0 0 0 0 0 0 0 0 0 0 0 0 0 0 0 0 0 0 0 0 0
1 1 1 1 1 1 1 1 1 0 0 0 0 0 0 0 0 0 0 0 0 0 0 0 0 0 0 0 0 0 0 0 0 0 0 0 0 0 0 0 0 0 0
1 1 1 1 1 1 1 1 1 0 0 0 0 0 0 0 0 0 0 0 0 0 0 0 0 0 0 0 0 0 0 0 0 0 0 0 0 0 0 0 0 0 0
1 0 0 0 0 0 0 0 0 0 0 0 0 0 0 0 0 0 0 0 0 0 0 0 0 0 0 0 0 0 0 0 0 0 0 0 0 0 0 0 0 0 0
0 0 0 0 0 0 0 0 0 0 0 0 0 0 0 0 0 0 0 0 0 0 0 0 0 0 0 0 0 0 0 0 0 0 0 0 0 0 0 0 0 0 0
0 0 0 0 0 0 0 0 0 0 0 0 0 0 0 0 0 0 0 0 0 0 0 0 0 0 0 0 0 0 0 0 0 0 0 0 0 0 0 0 0 0 0
0 0 0 0 0 0 0 0 0 0 0 0 0 0 0 0 0 0 0 0 0 0 0 0 0 0 0 0 0 0 0 0 0 0 0 0 0 0 0 0 0 0 0
0 0 0 0 0 0 0 0 0 0 0 0 0 0 0 0 0 0 0 0 0 0 0 0 0 0 0 0 0 0 0 0 0 0 0 0 0 0 0 0 0 0 0
0 0 0 0 0 0 0 0 0 0 0 0 0 0 0 0 0 0 0 0 0 0 0 0 0 0 0 0 0 0 0 0 0 0 0 0 0 0 0 0 0 0 0
0 0 0 0 0 0 0 0 0 0 0 0 0 0 0 0 0 0 0 0 0 0 0 0 0 0 0 0 0 0 0 0 0 0 0 0 0 0 0 0 0 0 0
0 0 0 0 0 0 0 0 0 0 0 0 0 0 0 0 0 0 0 0 0 0 0 0 0 0 0 0 0 0 0 0 0 0 0 0 0 0 0 0 0 0 0
0 0 0 0 0 0 0 0 0 0 0 0 0 0 0 0 0 0 0 0 0 0 0 0 0 0 0 0 0 0 0 0 0 0 0 0 0 0 0 0 0 0 0
0 0 0 0 0 0 0 0 0 0 0 0 0 0 0 0 0 0 0 0 0 0 0 0 0 0 0 0 0 0 0 0 0 0 0 0 0 0 0 0 0 0 0
0 0 0 0 0 0 0 0 0 0 0 0 0 0 0 0 0 0 0 0 0 0 0 0 0 0 0 0 0 0 0 0 0 0 0 0 0 0 0 0 0 0 0
0 0 0 0 0 0 0 0 0 0 0 0 0 0 0 0 0 0 0 0 0 0 0 0 0 0 0 0 0 0 0 0 0 0 0 0 0 0 0 0 0 0 0
0 0 0 0 0 0 0 0 0 0 0 0 0 0 0 0 0 0 0 0 0 0 0 0 0 0 0 0 0 0 0 0 0 0 0 0 0 0 0 0 0 0 0
0 0 0 0 0 0 0 0 0 0 0 0 0 0 0 0 0 0 0 0 0 0 0 0 0 0 0 0 0 0 0 0 0 0 0 0 0 0 0 0 0 0 0
0 0 0 0 0 0 0 0 0 0 0 0 0 0 0 0 0 0 0 0 0 0 0 0 0 0 0 0 0 0 0 0 0 0 0 0 0 0 0 0 0 0 0
Wind_Speed
4 4 3 3 3 3 3 3 3 3 4 4 4 4 4 4 3 3 3 8 10 10 11 10 10 9 8 8 8 7 7 7 6 5 4 3 2 1 2 2 3 4 4
5 4 3 3 3 3 4 4 4 3 2 2 3 3 3 3 3 3 3 5 9 11 11 12 10 9 9 8 8 8 8 9 9 8 8 6 5 4 3 2 2 2 3
5 4 3 3 3 3 3 3 3 1 1 2 2 3 3 3 3 4 4 3 4 8 11 11 10 8 8 8 8 8 8 9 10 10 10 9 8 7 6 5 4 4 3
5 4 3 3 3 2 2 2 2 1 2 2 2 3 3 3 4 5 4 4 3 3 4 7 6 5 5 6 7 7 7 6 9 10 11 11 11 11 10 8 7 6 5
5 4 3 3 2 2 1 2 2 2 2 3 3 3 3 4 5 5 5 4 3 2 2 2 2 1 2 4 6 7 7 7 6 8 10 12 13 13 12 12 11 9 8
5 4 3 3 2 1 1 1 2 2 2 2 3 3 4 5 4 5 5 3 2 2 2 2 2 2 3 4 5 7 8 8 8 6 7 9 11 13 14 14 13 12 11
4 4 3 2 2 2 2 2 2 2 2 1 1 3 4 4 4 4 2 1 1 1 2 3 3 2 3 7 8 8 8 9 9 9 7 7 9 10 14 15 15 14 14
3 3 3 2 1 1 1 1 1 1 1 1 1 2 3 4 3 3 1 1 1 2 3 3 4 4 3 3 6 9 9 9 10 9 9 8 8 9 11 13 15 16 16
4 3 3 2 1 1 1 1 1 2 2 2 2 3 2 3 3 2 3 2 2 2 2 3 4 5 5 3 3 7 9 9 10 10 9 9 8 8 9 10 12 15 16
4 3 3 3 2 1 1 1 1 1 2 2 2 2 3 3 2 2 2 2 3 3 3 3 4 5 4 3 4 7 9 9 10 10 9 9 9 9 8 8 9 11 14
3 3 3 3 2 1 1 0 0 1 1 2 2 2 2 2 3 3 3 1 2 3 3 4 4 4 4 4 3 7 10 10 11 10 9 9 8 8 8 8 8 8 10
2 3 3 3 2 1 1 0 1 1 1 2 2 2 2 2 2 3 4 3 1 1 3 4 3 3 3 3 5 9 10 11 12 12 11 10 9 9 9 8 7 7 7
2 2 2 2 1 1 0 0 0 1 1 1 2 1 1 2 1 2 2 2 2 2 2 3 3 3 3 3 4 9 10 11 12 12 13 13 12 10 9 8 6 3 4
3 3 2 2 1 0 0 0 0 1 0 1 1 1 0 0 1 1 2 2 2 2 2 3 2 2 3 3 5 8 6 10 11 12 12 13 12 11 9 7 6 5 3
3 3 2 2 1 0 0 0 0 0 0 0 0 0 1 0 1 1 0 1 2 3 3 3 2 2 2 2 5 4 4 9 10 11 12 12 12 12 11 9 8 7 6
3 3 2 2 1 0 0 1 0 0 1 0 1 1 2 1 1 2 1 1 0 2 2 2 2 2 2 2 5 4 4 8 10 10 11 12 12 13 13 12 11 10 8
3 3 2 2 2 1 0 1 1 1 1 1 1 2 2 2 2 2 2 2 1 1 2 2 2 2 2 2 2 3 3 4 4 9 10 11 12 12 13 13 13 12 11
3 3 2 2 2 1 1 1 1 1 2 2 2 3 2 2 3 2 2 2 2 1 1 3 2 2 2 2 2 2 2 3 3 7 8 9 10 10 10 11 11 11 11
3 3 3 3 2 2 1 1 2 2 3 3 3 3 3 3 3 2 2 2 1 2 2 2 2 1 1 1 2 2 2 2 3 5 7 8 8 8 8 8 9 9 9
4 3 3 3 2 2 2 2 3 3 4 4 4 4 3 3 3 3 2 2 1 2 2 2 2 2 2 2 2 1 1 2 3 4 5 5 7 8 8 7 7 7 7
4 4 4 3 3 2 2 2 3 4 4 4 4 4 3 4 5 3 2 1 1 1 2 2 2 1 1 1 1 0 0 1 1 2 3 3 3 3 4 6 6 5 5
4 4 4 4 3 2 4 5 4 4 4 4 4 3 3 3 4 5 6 5 3 2 2 2 1 2 2 1 1 1 1 1 2 2 2 2 2 2 2 2 4 4 4
4 4 4 4 3 4 6 6 6 4 4 4 4 3 2 2 4 3 4 6 6 5 3 3 3 3 3 3 2 1 1 1 1 2 1 2 2 2 2 4 6 3 3
4 4 4 4 4 4 6 6 7 4 4 3 3 3 3 2 2 3 3 3 2 2 3 3 3 3 3 3 3 3 2 1 1 1 1 1 2 2 3 3 6 4 4
4 4 4 5 5 4 7 8 8 4 3 3 3 3 4 3 5 6 4 3 2 1 2 5 5 4 4 5 4 3 2 2 0 1 2 1 2 3 2 2 4 7 7
4 4 4 4 5 5 8 9 9 3 3 3 2 3 6 6 6 6 4 4 3 2 1 1 2 2 2 2 2 3 3 2 1 1 1 1 1 2 3 3 2 3 4
Wind_Direction
176 183 195 199 205 208 217 231 240 253 260 258 247 242 253 260 259 248 249 243 240 239 242 243 243 245 245 241 240 234 224 219 213 206 199 192 178 149 105 88 78 70 72
173 178 188 196 205 207 212 216 223 232 243 246 251 250 258 269 269 264 250 250 248 247 247 249 252 254 256 257 256 249 234 225 220 215 210 207 202 199 188 165 134 111 95
175 172 178 192 206 205 206 212 228 220 238 253 270 277 275 276 277 272 263 250 253 252 250 253 257 260 268 276 278 275 259 237 226 220 217 213 210 208 206 195 184 171 152
176 169 174 196 207 197 194 204 217 231 256 265 273 280 281 282 277 270 265 257 249 248 246 243 251 266 283 296 302 303 297 272 243 230 223 219 215 212 210 205 199 193 186
174 169 181 199 197 191 205 216 216 210 242 261 269 274 274 271 271 273 271 264 247 228 204 201 211 255 335 334 329 329 330 325 295 253 236 228 222 216 214 210 206 202 197
177 172 179 193 184 183 213 227 238 232 231 248 273 278 272 268 270 269 266 263 246 200 168 144 127 89 61 43 23 9 358 352 342 318 270 246 234 225 219 215 211 207 203
172 169 175 187 180 190 215 225 228 245 252 237 281 296 291 281 285 283 265 237 187 145 129 122 113 99 73 63 49 34 16 4 354 345 327 289 259 241 230 222 216 211 207
150 152 158 163 165 187 216 226 212 236 250 204 207 284 311 327 327 344 356 110 117 100 99 101 102 93 83 67 54 47 29 9 353 344 335 321 293 266 247 234 225 217 210
137 137 142 146 160 178 206 222 205 208 243 251 207 211 236 260 302 325 8 35 65 83 85 89 89 88 84 70 50 36 29 11 354 343 334 325 317 295 270 248 235 224 215
122 121 124 129 134 141 184 233 206 211 216 246 251 230 222 212 235 293 330 16 46 64 68 79 82 80 78 67 54 42 30 13 358 345 335 328 323 315 298 266 248 235 222
111 114 114 108 106 106 101 44 320 248 219 227 228 237 246 239 222 224 253 284 39 44 56 70 76 76 68 58 46 41 32 17 4 354 344 336 333 328 318 299 266 247 232
98 99 104 105 105 102 86 358 297 282 262 249 237 223 220 223 217 212 226 219 188 86 59 54 60 67 63 51 47 42 31 20 10 4 359 359 352 339 330 320 292 260 240
146 138 117 121 117 117 164 262 260 272 268 254 244 233 227 235 226 212 215 214 192 151 110 61 39 54 61 47 41 39 30 23 14 11 12 13 5 353 339 329 321 294 238
154 153 149 142 137 151 195 323 274 272 265 260 273 247 208 278 276 226 212 195 198 181 146 131 60 50 57 49 48 41 24 26 22 18 18 15 11 9 7 11 21 27 57
144 149 147 148 153 165 165 131 149 294 308 70 154 116 123 61 23 359 321 204 194 202 189 147 131 72 70 65 51 35 22 25 28 28 26 23 21 26 31 33 33 37 54
140 143 141 145 144 132 113 113 158 204 143 125 120 102 81 56 44 31 24 35 104 186 172 126 126 117 76 74 57 40 26 26 23 30 32 32 36 39 41 42 46 50 58
141 146 150 152 143 108 72 145 163 144 143 119 99 101 85 67 63 42 40 49 48 85 156 119 107 117 108 82 48 29 26 21 7 25 32 36 38 40 42 42 45 50 55
139 145 140 136 123 102 71 150 150 134 142 135 113 106 96 86 71 53 57 59 53 43 127 140 123 124 113 96 67 38 26 24 6 16 29 35 36 38 41 43 45 48 51
142 138 133 137 126 111 92 112 128 120 117 111 107 110 107 103 85 68 65 62 44 43 63 119 123 112 101 86 69 32 33 14 6 14 23 28 27 31 37 41 46 49 49
151 148 143 141 134 124 116 122 126 119 109 97 93 96 97 105 109 101 81 68 68 75 81 104 111 107 94 78 84 54 16 5 6 4 11 13 16 24 29 37 43 48 47
159 154 146 146 142 141 149 145 141 137 128 113 98 90 94 107 117 117 105 84 88 100 104 109 117 112 106 97 109 50 38 340 349 4 349 354 358 5 9 16 30 37 37
159 156 163 162 164 170 172 173 163 147 141 135 126 105 92 83 92 94 94 91 102 124 142 135 138 147 149 147 126 96 85 37 311 338 3 339 2 359 344 336 348 16 16
169 169 171 167 169 177 182 182 173 145 142 146 147 146 131 112 92 79 77 64 57 69 108 148 153 164 165 175 153 136 150 182 248 302 356 326 348 337 324 336 341 355 13
177 179 179 172 169 187 189 180 160 134 136 148 157 159 150 145 157 142 120 93 63 49 81 101 138 157 166 170 171 168 173 183 302 340 33 326 333 322 324 333 346 18 31
181 182 176 172 172 183 184 171 150 137 147 162 172 176 170 176 191 164 145 141 123 39 108 136 148 166 171 172 161 122 113 90 358 333 9 28 336 322 316 319 343 10 11
179 175 177 179 178 185 193 185 169 157 166 180 194 200 195 196 203 175 160 163 177 201 165 108 82 66 52 53 121 144 150 141 165 267 333 43 5 2 335 314 325 344 357